Home > Weather > Brăila > Past weeks

Flag for Romania Past Weather in Brăila, Romania — Yesterday and Last 2 Weeks

Now
69 °F

Overcast.


Feels Like: 69 °F
Forecast: 70 / 87 °F
Wind: 3 mph from Northwest

Location: Galati

Current Time: Jun 29, 2016 at 4:57:30 AM

Latest Report: Jun 29, 2016 at 4:00 AM


Visibility: 13 mi

Pressure: 29.80 "Hg

Humidity: 85%

Dew Point: 64 °F

Location of BrăilaLocation

Past Weather in Brăila — Graph

°F

Brăila Temperature Yesterday

Maximum temperature yesterday: 80 °F (at 7:00 PM)
Minimum temperature yesterday: 69 °F (at 11:00 AM)
Average temperature yesterday: 74 °F

High & Low Weather Summary for the Past Weeks

 TemperatureHumidityPressure
High96 °F (Jun 21, 5:00 PM)100% (Jun 14, 3:00 AM)30.20 "Hg (Jun 14, 3:00 AM)
Low62 °F (Jun 15, 5:00 AM)32% (Jun 16, 7:00 PM)29.44 "Hg (Jun 14, 7:00 PM)
Average78 °F66%29.96 "Hg
* Reported Jun 14 3:00 AM — Jun 29 3:00 AM, Brăila, Weather by CustomWeather, © 2016

Note: Actual official high and low records may vary slightly from our data, if they occured in-between our weather recording intervals... More about our weather records

Advertising

Brăila Weather History for the Previous 24 Hours

Scroll right to see more
 ConditionsComfort  
Time TempWeatherWind HumidityBarometerVisibility
3:00 AM
Wed, Jun 29
68 °FOvercast.3 mph88%29.79 "Hg12 mi
2:00 AM67 °FOvercast.3 mph88%29.79 "Hg12 mi
1:00 AM68 °FPassing clouds.2 mph84%29.79 "Hg12 mi
12:00 AM69 °FMild.3 mph86%29.79 "HgN/A
11:00 PM
Tue, Jun 28
69 °FPassing clouds.3 mph86%29.79 "Hg12 mi
10:00 PM72 °FPassing clouds.3 mph79%29.78 "Hg12 mi
9:00 PM74 °FPassing clouds.3 mph73%29.76 "Hg12 mi
8:00 PM78 °FScattered clouds.3 mph63%29.74 "Hg12 mi
7:00 PM80 °FScattered clouds.3 mph56%29.73 "Hg12 mi
6:00 PM80 °FPartly sunny.3 mph58%29.76 "Hg12 mi
5:00 PM78 °FScattered clouds.3 mph66%29.74 "Hg12 mi
4:00 PM77 °FPartly sunny.3 mph70%29.75 "Hg12 mi
3:00 PM70 °FOvercast.1 mph85%29.76 "Hg12 mi
2:00 PM72 °FOvercast.2 mph73%29.78 "Hg12 mi
1:00 PM72 °FOvercast.6 mph70%29.78 "Hg12 mi
12:00 PM71 °FOvercast.7 mph75%29.79 "Hg12 mi
11:00 AM69 °FOvercast.5 mph81%29.79 "Hg12 mi
10:00 AM70 °FOvercast.6 mph81%29.77 "Hg12 mi
9:00 AM72 °FOvercast.6 mph76%29.76 "Hg12 mi
8:00 AM71 °FOvercast.6 mph80%29.75 "Hg12 mi
7:00 AM71 °FOvercast.3 mph83%29.75 "Hg12 mi
6:00 AM72 °FOvercast.3 mph80%29.74 "Hg12 mi
5:00 AM73 °FOvercast.3 mph77%29.74 "Hg6 mi
4:00 AM73 °FOvercast.3 mph79%29.75 "Hg12 mi
Weather by CustomWeather, © 2016

See weather overviewHow to use our weather pages